{"data":{"norad_id":57900,"epoch":"2026-05-24T16:15:53.006112Z","epoch_age_seconds":93053,"freshness":"FRESH","line1":"1 57900U 23146K   26144.67769683  .00001405  00000+0  60584-4 0  9992","line2":"2 57900  43.0029 245.3994 0001773 280.0010  80.0642 15.27576556147614","mean_motion":15.27576556,"eccentricity":0.0001773,"inclination_deg":43.0029,"raan_deg":245.3994,"arg_perigee_deg":280.001,"mean_anomaly_deg":80.0642,"bstar":6.0584e-5,"rev_number":14761,"period_min":94.26696124289,"perigee_km":481.84291851075,"apogee_km":484.27589875725,"semimajor_km":6861.196408634,"source":"CELESTRAK","updated_at":"2026-05-25T13:38:18.453691Z"}}